[[{"header":{"parameterUnit":"m.s-1","parameterCategory":1,"la1":30.2991,"la2":30.254,"lo1":-89.0895,"lo2":-89.0444,"dy":0.0017,"dx":0.0017,"nx":28,"ny":28,"refTime":"2023-08-13T03:00:00:Z","depth":0,"parameterNumber":2,"parameterNumberName":"U-component_of_WINDS"},"data":[0,0,0,0,0,0,0,0,0,0,0,0,0,0,0,0,0,0,0,0,0,0,0,0,0,0,0,0,0,0,0,0,0,0,0,0,0,0,0,0,0,0,0,0,0,0,0,0,0,0,0,0,0,0,0,0,0,0,0.3515,0.3517,0,0.3635,0.3636,0.3637,0.3693,0.3693,0.3693,0.3693,0.3815,0.3818,0.3821,0,0,0,0,0,0,0,0,0,0,0,0,0,0.3334,0.3337,0.3515,0.3517,0.3518,0.3634,0.3636,0.3638,0.3693,0.3693,0.3693,0.3693,0.3814,0.3817,0.3821,0,0,0,0,0,0,0,0,0,0,0,0,0,0.3429,0.3338,0.3515,0.356,0.3565,0.3634,0.3636,0.3638,0.3693,0.3693,0.3693,0.3693,0.3812,0.3817,0.3822,0.3855,0,0,0.3837,0.3839,0,0,0,0,0,0,0,0,0.3423,0.3435,0.3552,0.3557,0.3563,0.3649,0.3617,0.3711,0.3693,0.3644,0.3693,0.3693,0.376,0.3769,0.3791,0.3861,0.3866,0.3838,0.3841,0.3843,0.3844,0,0,0,0,0,0,0,0.3416,0.343,0.3562,0.3553,0.356,0.3574,0.3587,0.3635,0.3701,0.3649,0.3653,0.3666,0.3763,0.3787,0.3795,0.3868,0.3837,0.3842,0.3845,0.3847,0.397,0.397,0,0,0,0,0,0,0.3403,0.3425,0.3559,0.3566,0.3491,0.3577,0.3592,0.3621,0.3701,0.3713,0.3666,0.3669,0.3778,0.3789,0.3799,0.3843,0.3843,0.3847,0.385,0.3969,0.397,0.397,0,0,0,0,0,0,0.3399,0.3414,0.3554,0.3497,0.3515,0.358,0.3613,0.3624,0.3648,0.3714,0.3726,0.3679,0.3778,0.3792,0.3841,0.3848,0.385,0.3854,0.3969,0.397,0.397,0.3931,0,0,0,0,0,0,0.3393,0.3412,0.3426,0.3496,0.3518,0.3594,0.3613,0.3626,0.3656,0.366,0.3729,0.374,0.3779,0.3833,0.3846,0.3855,0.3858,0.3969,0.3969,0.397,0.3932,0.393,0.3929,0,0,0,0,0,0.3387,0.341,0.3426,0.3442,0.3537,0.3594,0.3606,0.3651,0.3657,0.3671,0.3713,0.3738,0.3845,0.3837,0.3852,0.3863,0.3969,0.3969,0.397,0.3933,0.3931,0.3929,0,0,0,0,0,0,0.3339,0.342,0.3439,0.3487,0.3533,0.3603,0.3622,0.3647,0.3693,0.3694,0.3747,0.3763,0.3806,0.384,0.383,0.3899,0.3909,0.3913,0.3876,0.3874,0.3873,0.3864,0.3862,0,0,0,0,0,0.3334,0.3374,0.3443,0.3478,0.35,0.3557,0.3584,0.3614,0.3664,0.3684,0.373,0.3777,0.3822,0.385,0.3894,0.3937,0.3953,0.3952,0.395,0.3948,0.3951,0.3976,0.3976,0.3972,0.3972,0.3972,0,0,0.3324,0.3374,0.3396,0.347,0.3509,0.3549,0.3573,0.3615,0.3645,0.369,0.3739,0.3774,0.383,0.3876,0.3898,0.3905,0.3955,0.3949,0.3947,0.3951,0.3976,0.3977,0.3977,0.3973,0.3973,0.3972,0,0,0.3327,0.3368,0.3402,0.3441,0.3501,0.3538,0.3546,0.3612,0.3638,0.3687,0.3722,0.3758,0.3833,0.3872,0.3902,0.3918,0.3942,0.393,0.3922,0.3945,0.3946,0.3946,0.3952,0.3953,0.3933,0.3933,0.3933,0,0.3307,0.337,0.3416,0.3456,0.3487,0.353,0.3564,0.3599,0.367,0.369,0.3697,0.3792,0.3833,0.3888,0.3892,0.3914,0.3925,0.3923,0.3942,0.3943,0.3944,0.395,0.3952,0.3931,0.3931,0.3931,0.3931,0,0.3342,0.3385,0.3405,0.3472,0.3505,0.3542,0.3594,0.3622,0.3649,0.3685,0.3735,0.3785,0.384,0.3855,0.3882,0.3914,0.3917,0.3931,0.3943,0.3942,0.3948,0.3951,0.3928,0.3929,0.3929,0.393,0,0,0.332,0.3412,0.3418,0.3449,0.3517,0.3551,0.3589,0.3643,0.3666,0.3713,0.3746,0.3808,0.3822,0.3855,0.3887,0.3907,0.3917,0.392,0.3922,0.3918,0.3955,0.3943,0.3945,0.3933,0.3933,0.3934,0.395,0,0.3332,0.3403,0.3446,0.3499,0.3538,0.3579,0.3612,0.3657,0.3692,0.373,0.3768,0.3811,0.3827,0.3847,0.3869,0.3911,0.3925,0.391,0.3964,0.3966,0.3949,0.3949,0.3938,0.395,0.3953,0.3954,0.3954,0,0.3357,0.3403,0.346,0.3523,0.3541,0.357,0.3623,0.3659,0.371,0.3734,0.3771,0.3802,0.3843,0.385,0.3908,0.3896,0.3921,0.3944,0.3946,0.3953,0.396,0.3957,0.3956,0.3958,0.3958,0.3958,0.3958,0,0.3334,0.3411,0.3455,0.348,0.3555,0.3574,0.3606,0.3657,0.3687,0.3733,0.3752,0.3802,0.3829,0.3867,0.391,0.3911,0.3963,0.3974,0.3984,0.3983,0.3994,0.3993,0.3998,0.4009,0.4009,0.4009,0.4009,0,0.3344,0.3378,0.3446,0.3473,0.3511,0.356,0.3596,0.3631,0.3676,0.3711,0.3748,0.3779,0.3835,0.3873,0.3907,0.3949,0.3961,0.3982,0.3991,0.3979,0.3976,0.3996,0.3997,0.4009,0.4009,0.4009,0.4009,0,0.3327,0.3374,0.3424,0.3491,0.3508,0.3534,0.359,0.3618,0.3654,0.3697,0.371,0.3766,0.3813,0.386,0.3923,0.3946,0.3987,0.3999,0.397,0.3975,0.3983,0.3981,0.4001,0.4006,0.4013,0.4012,0.4012,0,0.333,0.3357,0.3426,0.3452,0.3483,0.3524,0.3554,0.3602,0.3632,0.3692,0.3712,0.3762,0.3804,0.3876,0.3923,0.3971,0.3984,0.3988,0.3992,0.3979,0.3985,0.3983,0.3986,0.3986,0.3986,0.3986,0.3985,0,0.3332,0.3353,0.3396,0.3446,0.3481,0.3523,0.3566,0.3585,0.3641,0.3673,0.3721,0.3753,0.3817,0.3865,0.3919,0.3951,0.3978,0.3983,0.3989,0.3977,0.3959,0.3969,0.3966,0.3983,0.3983,0.3984,0.3984,0.3984,0.3325,0.3351,0.3403,0.3449,0.3486,0.3526,0.3555,0.3594,0.3635,0.3691,0.3717,0.3765,0.3815,0.3889,0.3921,0.3959,0.3967,0.3974,0.3976,0.3977,0.3974,0.3952,0.3969,0.3969,0.397,0.397,0.397,0,0.3329,0.3364,0.3406,0.3465,0.3501,0.3522,0.3571,0.3599,0.3641,0.3686,0.3726,0.3781,0.3828,0.3878,0.3928,0.3948,0.3962,0.396,0.3959,0.3966,0.3965,0.3956,0.3948,0.3948,0.3948,0.3948,0.3948,0.3948,0.3335,0.3379,0.3407,0.3469,0.3505,0.3553,0.3578,0.3615,0.3651,0.371,0.3749,0.3781,0.3828,0.3881,0.3925,0.3939,0.3955,0.395,0.3967,0.3965,0.3966,0.3968,0.396,0.3953,0.3953,0.3965,0.3965,0.3965]},{"header":{"parameterUnit":"m.s-1","parameterCategory":1,"la1":30.2991,"la2":30.254,"lo1":-89.0895,"lo2":-89.0444,"dy":0.0017,"dx":0.0017,"nx":28,"ny":28,"refTime":"2023-08-13T03:00:00:Z","depth":0,"parameterNumber":3,"parameterNumberName":"V-component_of_WINDS"},"data":[0,0,0,0,0,0,0,0,0,0,0,0,0,0,0,0,0,0,0,0,0,0,0,0,0,0,0,0,0,0,0,0,0,0,0,0,0,0,0,0,0,0,0,0,0,0,0,0,0,0,0,0,0,0,0,0,0,0,3.8484,3.8483,0,3.8386,3.8385,3.8384,3.8316,3.8316,3.8315,3.8315,3.8207,3.8205,3.8203,0,0,0,0,0,0,0,0,0,0,0,0,0,3.8607,3.8605,3.8485,3.8483,3.8482,3.8387,3.8385,3.8384,3.8316,3.8316,3.8315,3.8315,3.8208,3.8205,3.8202,0,0,0,0,0,0,0,0,0,0,0,0,0,3.8536,3.8605,3.8485,3.8437,3.8432,3.8387,3.8385,3.8383,3.8316,3.8316,3.8315,3.8314,3.8209,3.8206,3.8202,3.8194,0,0,3.8191,3.8189,0,0,0,0,0,0,0,0,3.854,3.8532,3.8445,3.844,3.8434,3.8363,3.8389,3.832,3.8317,3.836,3.8315,3.8314,3.8259,3.8251,3.8234,3.8189,3.8185,3.8191,3.8188,3.8187,3.8186,0,0,0,0,0,0,0,3.8545,3.8535,3.8445,3.8444,3.8437,3.8419,3.8408,3.8376,3.8315,3.8356,3.8351,3.8341,3.8256,3.8238,3.8231,3.8183,3.8191,3.8188,3.8185,3.8184,3.8127,3.8128,0,0,0,0,0,0,3.8558,3.854,3.8449,3.8443,3.8487,3.8417,3.8405,3.8387,3.8315,3.8303,3.8342,3.8338,3.8245,3.8236,3.8227,3.8214,3.8187,3.8184,3.8181,3.8126,3.8127,3.8128,0,0,0,0,0,0,3.8561,3.8551,3.8453,3.849,3.8476,3.8416,3.8396,3.8385,3.8367,3.8304,3.8292,3.8335,3.8244,3.8232,3.8204,3.8209,3.8182,3.8179,3.8126,3.8127,3.8127,3.8188,0,0,0,0,0,0,3.8565,3.8553,3.855,3.849,3.8474,3.8433,3.8396,3.8384,3.8362,3.8356,3.8295,3.8283,3.8242,3.8209,3.82,3.8204,3.8176,3.8125,3.8126,3.8127,3.8185,3.819,3.8195,0,0,0,0,0,3.857,3.857,3.8551,3.854,3.8471,3.8433,3.8424,3.8378,3.8363,3.8359,3.8319,3.8285,3.8211,3.8207,3.8196,3.8199,3.8124,3.8126,3.8127,3.8182,3.8189,3.8195,0,0,0,0,0,0,3.8629,3.8561,3.8539,3.852,3.8483,3.8422,3.8416,3.8387,3.8352,3.8348,3.8291,3.8277,3.8255,3.8223,3.8221,3.8188,3.8163,3.8163,3.8209,3.8215,3.822,3.8228,3.8173,0,0,0,0,0,3.8641,3.8618,3.8558,3.8547,3.853,3.8477,3.8458,3.8427,3.8385,3.8369,3.8326,3.8285,3.8253,3.8232,3.8198,3.818,3.8165,3.8176,3.8182,3.8186,3.8186,3.8174,3.8179,3.8133,3.8133,3.8133,0,0,3.8663,3.8622,3.8611,3.8558,3.8526,3.8502,3.8464,3.844,3.8421,3.8364,3.8335,3.8303,3.8253,3.823,3.8218,3.8203,3.8196,3.8188,3.8192,3.819,3.8176,3.8181,3.8185,3.8134,3.8133,3.8133,0,0,3.8691,3.8659,3.8646,3.8615,3.8568,3.8533,3.853,3.8473,3.845,3.8421,3.8378,3.8354,3.8298,3.8265,3.8241,3.8259,3.8226,3.8249,3.8276,3.8265,3.8269,3.8272,3.8278,3.8281,3.8249,3.8249,3.8249,0,3.8724,3.8688,3.8643,3.8622,3.8599,3.855,3.8536,3.8507,3.8451,3.8435,3.8421,3.8352,3.8314,3.8283,3.8288,3.827,3.8263,3.8255,3.8272,3.8275,3.8277,3.8282,3.8284,3.8252,3.8252,3.8251,3.8251,0,3.8731,3.8707,3.8702,3.8652,3.8628,3.8611,3.8561,3.8543,3.8513,3.8479,3.8449,3.8404,3.836,3.835,3.832,3.8315,3.8307,3.8284,3.8258,3.8285,3.8289,3.829,3.8257,3.8255,3.8255,3.8254,0,0,3.8793,3.8719,3.8718,3.8695,3.864,3.8619,3.8599,3.8559,3.8544,3.8507,3.8488,3.8443,3.8421,3.8394,3.8359,3.835,3.8366,3.8327,3.8325,3.8336,3.8357,3.8376,3.8379,3.8345,3.8345,3.8346,3.8361,0,3.8813,3.8777,3.8736,3.8713,3.869,3.8643,3.8625,3.8589,3.8556,3.853,3.8493,3.8462,3.8436,3.8419,3.8408,3.8367,3.837,3.8365,3.8325,3.8325,3.834,3.8381,3.84,3.8417,3.8362,3.8363,3.8363,0,3.8831,3.8799,3.8776,3.8723,3.8712,3.8697,3.8657,3.8634,3.8591,3.8567,3.8538,3.8502,3.8477,3.8455,3.8418,3.8416,3.8397,3.8375,3.8375,3.8369,3.8345,3.8376,3.8421,3.8424,3.8365,3.8364,3.8364,0,3.888,3.883,3.8809,3.8791,3.8729,3.872,3.8694,3.865,3.8629,3.8593,3.8579,3.854,3.8519,3.8489,3.8443,3.8431,3.8411,3.8385,3.839,3.8391,3.8387,3.8388,3.843,3.8376,3.8376,3.8376,3.8376,0,3.8906,3.8893,3.8831,3.8818,3.8802,3.8754,3.8738,3.8707,3.8669,3.8648,3.8604,3.8585,3.8526,3.8499,3.8462,3.8438,3.8428,3.8408,3.8398,3.8412,3.8414,3.8398,3.8396,3.8376,3.8376,3.8376,3.8376,0,3.8957,3.8915,3.8889,3.8834,3.882,3.881,3.8762,3.8747,3.8712,3.8686,3.8677,3.8622,3.8589,3.854,3.8491,3.8466,3.8447,3.8432,3.8463,3.8457,3.8465,3.8465,3.8498,3.85,3.8445,3.8445,3.8446,0,3.8977,3.8966,3.8911,3.8895,3.8871,3.8845,3.8825,3.8776,3.8756,3.8707,3.8697,3.8661,3.8629,3.8578,3.8532,3.8494,3.8477,3.8491,3.8471,3.8485,3.8477,3.8479,3.8477,3.8496,3.8497,3.8498,3.8498,0,3.9017,3.8997,3.8969,3.8935,3.8912,3.8882,3.8849,3.8838,3.8782,3.8761,3.8728,3.8704,3.8655,3.8619,3.8575,3.8545,3.8512,3.8505,3.8504,3.8518,3.8537,3.8527,3.8476,3.8504,3.8504,3.8503,3.8503,3.8503,3.9052,3.9041,3.9001,3.8972,3.8943,3.8914,3.8898,3.8862,3.8834,3.8793,3.8765,3.8733,3.869,3.8628,3.86,3.8573,3.8559,3.8558,3.8558,3.8558,3.8563,3.8542,3.8565,3.8565,3.8564,3.8564,3.8564,0,3.909,3.9062,3.9036,3.8994,3.8971,3.8944,3.8907,3.8889,3.8862,3.8826,3.8797,3.8758,3.8723,3.8676,3.8637,3.8624,3.8608,3.8616,3.8616,3.861,3.8577,3.8582,3.863,3.863,3.863,3.863,3.863,3.8629,3.9107,3.9087,3.9062,3.9027,3.8998,3.8969,3.895,3.8922,3.8893,3.8853,3.8825,3.8795,3.8754,3.8712,3.8678,3.8665,3.8652,3.8665,3.8647,3.8618,3.8612,3.8606,3.861,3.8663,3.8663,3.8681,3.8681,3.8681]}]]